Regional Weather Roundup
Issued by NWS

Home | Current Version | Previous Version | Text Only | Print | Product List | Glossary Off
Versions: 1 2 3 4 5 6 7 8 9 10 11 12 13 14 15 16 17 18 19 20 21 22 23 24 25 26 27 28 29 30 31 32 33 34 35 36 37 38 39 40 41 42 43 44 45 46 47 48 49 50

000
ASUS45 KTFX 270019
RWRMT
MONTANA HOURLY WEATHER ROUNDUP
NATIONAL WEATHER SERVICE GREAT FALLS MT
619 PM MDT TUE AUG 26 2014

NOTE: "FAIR" INDICATES FEW OR NO CLOUDS BELOW 12000 FEET WITH NO
SIGNIFICANT WEATHER AND/OR OBSTRUCTIONS TO VISIBILITY.

* THESE STATIONS ARE NOT UNDER NWS QUALITY CONTROL. THEY DO NOT
   REPORT WEATHER SUCH AS PRECIPITATION OR FOG.

MTZ001>007-043-270100-
WEST OF THE DIVIDE
CITY           SKY/WX    TMP DP  RH WIND       PRES   REMARKS
KALISPELL      CLEAR     79  45  30 S9        30.04F
MISSOULA       CLEAR     82  37  20 NW10      30.07S
BUTTE          FAIR      70  41  35 CALM      30.17F
MULLAN PASS    MOCLDY    64  41  43 VRB5      30.23F
* LINCOLN      N/A       75  38  26 S6G15      N/A
* LOOKOUT PASS N/A       71  43  37 SE6G12     N/A
* POLSON       N/A       77  46  33 E2G7       N/A
* RONAN APT    CLEAR     81  45  28 N/A        N/A
* SEELEY LAKE  N/A       76  38  25 W5G14      N/A
* THOMP F APT  CLEAR     69  39  34 S8G15      N/A
$$

MTZ008-052>055-270100-
SOUTHWEST MONTANA
CITY           SKY/WX    TMP DP  RH WIND       PRES   REMARKS
BOZEMAN        CLEAR     75  41  30 CALM      30.12F
DILLON         CLEAR     73  36  26 CALM      30.14F
W YELLOWSTONE  MOCLDY    66  39  37 SW7       30.24F
* THREE FORKS  CLEAR     79  75  88 N/A        N/A
* BOULDER HILL N/A       68  38  33 VRB3       N/A
* MONIDA PASS  N/A       65  41  42 NW1G9      N/A
* RAYNOLDS PAS N/A       71  58  64 W2         N/A
* WHITEHALL    N/A       81  41  24 NW4        N/A
* WISE RIVER   N/A       74  38  27 W4G13      N/A
$$

MTZ009>010-012-014-046-048-049-054-270100-
EAST SLOPES AND CENTRAL MONTANA
CITY           SKY/WX    TMP DP  RH WIND       PRES   REMARKS
CUT BANK       CLEAR     77  43  30 SW14      30.04F
GREAT FALLS    CLEAR     79  37  22 SW7       30.05F
HELENA         CLEAR     79  36  21 NW6       30.07F
MALMSTROM AFB  CLEAR     77  41  28 W8        30.06F
* CONRAD       CLEAR     79  43  28 N/A        N/A
* DEARBORN     N/A       80  36  20 S11G18     N/A
* EAST GLACIER N/A       70  43  38 W13G19     N/A
* MONARCH      N/A       71  24  17 S6G12      N/A
* PENDROY      N/A       76  37  24 SW4        N/A
* ROGERS PASS  N/A       69  36  30 SE4G13     N/A
* SAINT MARY   N/A       72  44  37 S9G19      N/A
* SWEET GRASS  N/A       77  37  24 SW14G20    N/A
* WHITE SULPH  N/A       74  41  31 NW3G9      N/A
$$

MTZ011-013-016-021-035-040-045-047-050-051-270100-
NORTH CENTRAL MONTANA
CITY           SKY/WX    TMP DP  RH WIND       PRES   REMARKS
HAVRE          CLEAR     79  37  22 SW7       30.02S
LEWISTOWN      CLEAR     77  39  26 NE3       30.10F
* FORT BENTON  CLEAR     81  37  21 S6        30.03F
* CHESTER      N/A       78  38  24 SE1G7      N/A
* DENTON       N/A       77  36  23 NE8        N/A
* GEYSER       N/A       77  33  20 W4G9       N/A
* JUDITH GAP   N/A       74  35  24 N4         N/A
* LOMA         N/A       79  40  25 SE6G11     N/A
$$

MTZ017>020-022>027-061-062-270100-
NORTHEAST MONTANA
CITY           SKY/WX    TMP DP  RH WIND       PRES   REMARKS
GLASGOW        CLEAR     73  50  44 S6        30.05F
GLENDIVE       CLEAR     72  48  43 SE5       30.11S
JORDAN         CLEAR     79  43  28 W5        30.06S
SIDNEY         CLEAR    N/A N/A N/A CALM      30.10F
WOLF POINT     CLEAR     77  45  32 W3        30.06F
* BEAVER HILL  N/A       71  48  44 NW1        N/A
* CIRCLE       N/A       76  50  40 SW4        N/A
* LINDSAY DVD  N/A       69  49  49 S3         N/A
* NAVAJO       N/A       71  43  37 SW8G13     N/A
$$

MTZ028>042-056>058-270100-
SOUTHCENTRAL AND SOUTHEAST MONTANA
CITY           SKY/WX    TMP DP  RH WIND       PRES   REMARKS
BAKER          CLEAR     72  54  53 SE6       30.12F
BILLINGS       FAIR      79  45  30 S6        30.09F
LIVINGSTON     FAIR      75  39  27 NW7       30.11F
MILES CITY     CLEAR     75  46  36 CALM      30.08F
* LAUREL APT   CLEAR     79  46  31 E5         N/A
* ROUNDUP APT  CLEAR     79  43  28 N/A        N/A
* ALZADA       N/A       73  53  50 VRB4       N/A
* HYSHAM       N/A       77  38  25 E4G10      N/A
* LAME DEER    N/A       70  46  42 N8         N/A
* REED POINT   N/A       80  43  27 SE2        N/A
* ROSCOE HILL  N/A       71  33  25 E7         N/A
$$

REGIONAL REPORTS...DAKOTAS
CITY           SKY/WX    TMP DP  RH WIND       PRES   REMARKS
WILLISTON      CLEAR     72  45  38 S3        30.10S
DICKINSON      FAIR      64  54  70 SE9       30.13R
BEACH          N/A       68  55  63 SE5       30.12S
CROSBY         CLEAR     68  46  45 SW5       30.10F
TIOGA          CLEAR     66  45  47 S6        30.14F
WATFORD CITY   CLEAR     70  48  46 SW8       30.09S
BISMARCK       MOCLDY    59  54  84 SE5       30.15F
GRAND FORKS    MOCLDY    68  52  57 S5        30.12F
FARGO          CLOUDY    66  52  61 W3        30.14S
BUFFALO SD     CLEAR     70  55  59 NE8       30.07S
RAPID CITY     PTCLDY    75  57  54 NE7       30.10S
$$

REGIONAL REPORTS...WYOMING/IDAHO/WASHINGTON
CITY           SKY/WX    TMP DP  RH WIND       PRES   REMARKS
GILLETTE       CLOUDY    73  46  38 N10       30.15S
SHERIDAN       PTCLDY    75  45  34 SW5       30.13F
CODY           PTCLDY    72  46  40 S5        30.16S
YELLOWSTONE LA PTCLDY    57  43  60 CALM      30.35R
SALMON         PTCLDY    75  45  34 CALM      30.07F
MULLAN PASS    MOCLDY    64  41  43 VRB5      30.23S
SAND POINT     CLEAR     81  45  28 S7        30.02F
SPOKANE        FAIR      84  43  24 W10       30.03F
$$

REGIONAL REPORTS...ALBERTA
CITY           SKY/WX    TMP DP  RH WIND       PRES   REMARKS
CALGARY        FAIR      77  43  30 CALM      29.95F
LETHBRIDGE     FAIR      79  45  30 SW12      29.97F
MEDICINE HAT   FAIR      82  45  27 SW12      29.94F
EDMONTON       PTCLDY    81  46  29 W8        29.88F
WATERTON GATE  N/A       73  46  38 SW12G17    N/A
CARDSTON       N/A       77  46  33 W6         N/A
MILK RIVER     N/A       79  41  26 SW8        N/A
$$

REGIONAL REPORTS...SASKATCHEWAN
CITY           SKY/WX    TMP DP  RH WIND       PRES   REMARKS
SWIFT CURRENT  CLEAR     75  43  32 SW13      30.00F
MOOSE JAW      FAIR      73  48  41 S5        30.04S
REGINA         N/A       70  50  49 S7        30.05F
VAL MARIE      N/A       73  46  38 S6         N/A
ASSINIBOIA     N/A       72  43  35 SW7        N/A
CORONACH       N/A       72  43  35 SW7        N/A

$$




USA.gov is the U.S. government's official web portal to all federal, state and local government web resources and services.